User: anonymous   Login
Location: Unspecified
(0.0000°N, 0.0000°E)
Time: 08:49:47
(UTC+02:00)
Language:

Cosmos 2082 Rocket - Orbit

View from above orbital plane
View from above orbital plane
View from above satellite
View from above satellite

Ground track
Ground track

The orbit data is extracted from the following two-line orbital elements,

1 20625U 90046B   16205.83260557 -.00000260  00000-0 -11021-3 0  9992
2 20625  70.9995 118.2796 0016452 249.3102 166.8412 14.14598640351402
Epoch (UTC): 23 July 2016 19:58:57
Eccentricity: 0.0016452
inclination: 70.9995°
perigee height: 832 km
apogee height: 855 km
right ascension of ascending node: 118.2796°
argument of perigee: 249.3102°
revolutions per day: 14.14598640
mean anomaly at epoch: 166.8412°
orbit number at epoch: 35140

The dashed part of the orbit path shows where the satellite is in the earth's shadow,  

DLR